Weather in Sijjak

Uzbekistan     41°41′29″N   70°03′27″E
temp.,
°C
wind,
m/s
gust,
m/s
humid.,
%
clouds,
%
prec.,
mm/h
press.,
hPa
HPBL,
m
12 april, mon
mon1223:00+3se227396 0.1 101968
02:00+2se227829 0.3 102029
05:00+1ese22811 0.3 102129
08:00+5sse23700 0.0 1020234
11:00+9ssw34580 0.0 1019588
14:00+12ssw4552100 0.2 1018933
17:00+9ese4463100 0.4 1019528
20:00+6e448182 0.5 102299
13 april, tue
tue1323:00+4e457676 0.6 102271
02:00+4ene4480100 0.1 102273
05:00+4e4379100 0.3 102257
08:00+6ene3382100 0.4 1022117
11:00+9se2267100 0.6 1022871
14:00+8w1179100 1.2 1023847
17:00+9ese226937 1.6 1022688
20:00+5ene338467 0.0 102347
14 april, wed
wed1423:00+4ene4483100 0.0 102361
02:00+6ene447991 0.0 102161
05:00+4ene45794 0.0 102261
08:00+8ene44676 0.0 1020228
11:00+14e32485 0.0 1017855
14:00+16se22378 0.0 10151746
17:00+15e22453 0.0 1014483
20:00+8ene4466100 0.1 101784
15 april, thu
thu1523:00+8e456654 0.3 101683
02:00+8ene556351 0.2 101570
05:00+5ene456314 0.2 101656
08:00+10e3353100 0.0 1016155
11:00+16se223654 0.0 1014614
14:00+17ssw353735 0.0 10131654
17:00+15s2248100 0.0 1013607
20:00+10e3359100 0.0 101440
16 april, fri
fri1623:00+9ene3356100 0.0 101435
02:00+8ene3354100 0.0 101330
05:00+7ene3354100 0.0 101431
08:00+10e2152100 0.0 1015169
11:00+13sw3245100 0.0 1014924
14:00+14sw3343100 0.0 10141066
17:00+13ssw3344100 0.0 1015854
20:00+8ese11581 0.0 101611